FW7124 Weather Reports


time (UTC)temp
F
wind
direction
speed
knots
gust
knots
rain 1hr
in
rain 24hr
in
rain mn
in
humidity
%
barometer
mb
20260508044120 46 109 0.0 0.0 0.00 0.00 0.00 90 1016.4
20260508042630 46 109 0.0 0.0 0.00 0.00 0.00 89 1016.4
20260508041627 46 109 0.0 0.0 0.00 0.00 0.00 89 1016.4
20260508040632 46 109 0.0 0.0 0.00 0.00 0.00 90 1016.4
20260508035627 46 109 0.0 0.0 0.00 0.00 0.00 90 1016.4
20260508034627 46 109 0.0 0.0 0.00 0.00 0.00 89 1016.4
20260508033628 46 109 0.0 0.0 0.00 0.00 0.00 89 1016.4
20260508032627 46 109 0.0 0.0 0.00 0.00 0.00 89 1016.4
20260508031627 46 109 0.0 0.0 0.00 0.00 0.00 88 1016.4
20260508030628 46 109 0.0 0.0 0.00 0.00 0.00 88 1016.5
20260508025627 46 109 0.0 0.0 0.00 0.00 0.00 88 1016.5
20260508024626 46 109 0.0 0.0 0.00 0.00 0.00 88 1016.6
20260508023627 46 109 0.0 0.0 0.00 0.00 0.00 88 1016.6
20260508022627 46 109 0.0 0.0 0.00 0.00 0.00 87 1016.7
20260508021626 46 109 0.0 0.0 0.00 0.00 0.00 87 1016.6
20260508015629 46 109 0.0 0.0 0.00 0.00 0.00 87 1016.6
20260508014625 46 109 0.0 0.0 0.00 0.00 0.00 88 1016.6
20260508013626 46 109 0.0 0.0 0.00 0.00 0.00 88 1016.7
20260508012625 46 109 0.0 0.0 0.00 0.00 0.00 88 1016.6
20260508011622 46 109 0.0 0.0 0.00 0.00 0.00 88 1016.7
20260508010623 47 109 0.0 0.0 0.00 0.00 0.00 88 1016.8
20260508005621 47 109 0.0 0.0 0.00 0.00 0.00 88 1016.8
20260508004621 46 109 0.0 0.0 0.00 0.00 0.00 87 1016.7
20260508003618 46 113 0.0 0.0 0.00 0.00 0.00 88 1016.8
20260508002615 46 113 0.0 0.0 0.00 0.00 0.00 87 1016.8
20260508001614 46 113 0.0 0.0 0.00 0.00 0.00 87 1017.0
20260508000612 46 113 0.0 0.0 0.00 0.00 0.00 86 1017.0
20260507235610 46 113 0.0 0.0 0.00 0.00 0.00 85 1016.9
20260507234609 46 113 0.0 0.0 0.00 0.00 0.00 86 1016.9
20260507233609 46 113 0.0 0.0 0.00 0.00 0.00 86 1017.0
20260507232612 46 113 0.0 0.0 0.00 0.00 0.00 86 1017.0
20260507231608 46 113 0.0 0.0 0.00 0.00 0.00 85 1017.1
20260507230609 46 113 0.0 1.7 0.00 0.00 0.00 84 1017.1
20260507225610 46 113 0.0 1.7 0.00 0.00 0.00 84 1017.1
20260507223609 47 113 0.0 0.0 0.00 0.00 0.00 84 1017.3
20260507222605 47 113 0.0 0.0 0.00 0.00 0.00 83 1017.3
20260507221605 47 113 0.0 0.0 0.00 0.00 0.00 82 1017.2
20260507220604 48 113 0.0 0.9 0.00 0.00 0.00 81 1017.3
20260507215605 49 113 0.0 0.9 0.00 0.00 0.00 81 1017.2
20260507214605 49 113 0.0 0.9 0.00 0.00 0.00 77 1017.2
20260507213604 49 113 0.0 1.7 0.00 0.00 0.00 77 1017.1
20260507212559 49 113 0.0 1.7 0.00 0.00 0.00 77 1017.0
20260507212047 49 130 0.9 1.7 0.00 0.00 0.00 76 1017.2
20260507210601 50 144 0.0 1.7 0.00 0.00 0.00 78 1017.2
20260507205559 50 196 0.0 0.9 0.00 0.00 0.00 77 1017.2
20260507204556 51 196 0.0 1.7 0.00 0.00 0.00 77 1017.1
20260507203556 51 196 0.0 1.7 0.00 0.00 0.00 77 1017.0
20260507203041 51 122 0.0 0.9 0.00 0.00 0.00 74 1016.9
20260507202048 52 122 0.0 0.9 0.00 0.00 0.00 73 1016.8
20260507200554 53 122 0.0 0.0 0.00 0.00 0.00 73 1016.6
20260507195553 53 122 0.0 1.7 0.00 0.00 0.00 71 1016.4
20260507194552 54 122 0.0 1.7 0.00 0.00 0.00 70 1016.3
20260507193553 54 122 0.0 2.6 0.00 0.00 0.00 70 1016.1
20260507192550 55 122 0.9 2.6 0.00 0.00 0.00 69 1016.2
20260507191550 55 213 0.9 3.5 0.00 0.00 0.00 68 1016.1
20260507190549 55 200 0.9 4.3 0.00 0.00 0.00 67 1016.0
20260507185548 56 108 0.9 4.3 0.00 0.00 0.00 67 1015.9
20260507184548 56 231 1.7 7.0 0.00 0.00 0.00 66 1015.9
20260507184025 56 123 1.7 7.0 0.00 0.00 0.00 65 1016.0
20260507182548 56 153 1.7 7.0 0.00 0.00 0.00 65 1015.9
20260507181548 56 115 1.7 4.3 0.00 0.00 0.00 65 1015.9
20260507175551 56 186 1.7 4.3 0.00 0.00 0.00 65 1015.9
20260507174549 56 113 0.9 4.3 0.00 0.00 0.00 64 1015.8
20260507174031 56 138 0.9 6.1 0.00 0.00 0.00 64 1015.9
20260507172602 56 128 0.9 6.1 0.00 0.00 0.00 64 1015.7
20260507172022 56 116 0.9 6.1 0.00 0.00 0.00 64 1015.7
20260507171034 56 153 1.7 7.0 0.00 0.00 0.00 64 1015.7
20260507165551 56 84 0.9 4.3 0.00 0.00 0.00 65 1015.8
20260507164547 56 238 1.7 4.3 0.00 0.00 0.00 65 1015.7
20260507163545 56 211 1.7 5.2 0.00 0.00 0.00 65 1015.8
20260507163031 56 128 1.7 6.1 0.00 0.00 0.00 65 1015.8
20260507161021 56 200 2.6 9.6 0.00 0.00 0.00 63 1015.9
20260507155542 57 130 2.6 6.1 0.00 0.00 0.00 63 1015.9
20260507154542 57 217 1.7 5.2 0.00 0.00 0.00 60 1015.9
20260507153542 57 234 1.7 5.2 0.00 0.00 0.00 55 1015.9
20260507152542 58 184 1.7 7.0 0.00 0.00 0.00 58 1015.9
20260507151540 58 184 1.7 5.2 0.00 0.00 0.00 57 1015.9
20260507151017 58 140 1.7 5.2 0.00 0.00 0.00 56 1015.8
20260507145540 59 138 0.9 4.3 0.00 0.00 0.00 51 1015.9
20260507143541 59 229 0.0 1.7 0.00 0.00 0.00 47 1016.1
20260507143023 60 266 0.9 6.1 0.00 0.00 0.00 52 1016.0
20260507141538 60 129 1.7 6.1 0.00 0.00 0.00 49 1016.1
20260507140539 60 144 0.9 4.3 0.00 0.00 0.00 49 1016.2
20260507135538 58 128 0.9 5.2 0.00 0.00 0.00 52 1016.1
20260507134538 58 118 1.7 7.0 0.00 0.00 0.00 57 1016.2
20260507133538 58 101 1.7 7.0 0.00 0.00 0.00 57 1016.2
20260507132538 59 219 0.9 5.2 0.00 0.00 0.00 57 1016.2
20260507131538 59 232 0.9 4.3 0.00 0.00 0.00 47 1016.3
20260507130538 59 123 0.9 3.5 0.00 0.00 0.00 47 1016.4
20260507125538 59 165 0.9 4.3 0.00 0.00 0.00 47 1016.3
20260507124538 59 115 0.9 2.6 0.00 0.00 0.00 48 1016.4
20260507123538 59 142 0.9 6.1 0.00 0.00 0.00 48 1016.4
20260507122538 59 124 0.9 4.3 0.00 0.00 0.00 48 1016.4
20260507121538 59 142 0.9 3.5 0.00 0.00 0.00 47 1016.5
20260507121016 59 132 0.9 4.3 0.00 0.00 0.00 48 1016.5
20260507115538 59 132 0.0 2.6 0.00 0.00 0.00 50 1016.5
20260507114539 59 156 0.0 6.1 0.00 0.00 0.00 48 1016.5
20260507113538 60 73 0.9 6.1 0.00 0.00 0.00 49 1016.4
20260507112538 61 140 0.0 4.3 0.00 0.00 0.00 49 1016.4
20260507112021 61 130 0.9 2.6 0.00 0.00 0.00 48 1016.4
20260507110539 58 126 0.0 0.9 0.00 0.00 0.00 53 1016.4
20260507105536 58 133 0.0 1.7 0.00 0.00 0.00 56 1016.6
20260507104538 58 134 0.0 2.6 0.00 0.00 0.00 55 1016.6
20260507103536 59 26 0.0 2.6 0.00 0.00 0.00 51 1016.7
20260507102539 61 110 0.9 7.0 0.00 0.00 0.00 49 1016.8
20260507101533 61 148 0.9 6.1 0.00 0.00 0.00 47 1016.8
20260507095535 60 64 0.0 1.7 0.00 0.00 0.00 54 1017.0
20260507094533 59 86 0.0 3.5 0.00 0.00 0.00 56 1016.9
20260507093533 59 81 0.9 4.3 0.00 0.00 0.00 59 1017.0
20260507093026 59 109 0.9 3.5 0.00 0.00 0.00 59 1017.0
20260507092022 58 74 0.9 4.3 0.00 0.00 0.00 62 1017.0
20260507091015 57 125 0.9 4.3 0.00 0.00 0.00 65 1017.0
20260507085532 56 116 0.9 4.3 0.00 0.00 0.00 67 1017.1
20260507084527 56 164 0.9 2.6 0.00 0.00 0.00 72 1017.1
20260507083524 55 152 0.9 2.6 0.00 0.00 0.00 75 1017.0
20260507082523 54 70 0.0 1.7 0.00 0.00 0.00 78 1016.9
20260507081522 53 94 0.0 1.7 0.00 0.00 0.00 80 1016.9
20260507080521 51 127 0.0 1.7 0.00 0.00 0.00 82 1017.0
20260507075522 50 109 0.0 1.7 0.00 0.00 0.00 84 1016.9
20260507073519 48 94 0.0 1.7 0.00 0.00 0.00 87 1016.9
20260507072517 47 126 0.0 1.7 0.00 0.00 0.00 90 1016.8
20260507071517 45 112 0.0 1.7 0.00 0.00 0.00 91 1016.8
20260507070518 44 136 0.0 1.7 0.00 0.00 0.00 92 1016.7
20260507065515 44 136 0.0 1.7 0.00 0.00 0.00 94 1016.9
20260507064515 43 5 0.0 0.0 0.00 0.00 0.00 94 1016.9
20260507063514 42 5 0.0 0.0 0.00 0.00 0.00 95 1016.9
20260507062513 41 5 0.0 0.0 0.00 0.00 0.00 95 1016.8
20260507061514 40 5 0.0 0.0 0.00 0.00 0.00 95 1016.7
20260507060511 39 5 0.0 0.0 0.00 0.00 0.00 94 1016.6
20260507055511 39 5 0.0 0.0 0.00 0.00 0.00 93 1016.6
20260507054512 38 5 0.0 0.0 0.00 0.00 0.00 93 1016.5
20260507053511 38 5 0.0 0.0 0.00 0.00 0.00 92 1016.5
20260507052511 38 5 0.0 0.0 0.00 0.00 0.00 92 1016.4
20260507051728 38 5 0.0 0.0 0.00 0.00 0.00 92 1016.3
20260507051615 38 5 0.0 0.0 0.00 0.00 0.00 92 1016.4
20260507045518 38 5 0.0 0.0 0.00 0.00 0.00 92 1016.3
20260507044508 38 5 0.0 0.0 0.00 0.00 0.00 91 1016.2